New River MCAS, NC

10:11 PM EST on December 16, 2017 (GMT -0500)
New River Marine Corps Air Station

Weather History for KNCA - March, 2013

Change the Weather History Date:

Tuesday, March 19, 2013

  Actual Average Record
Temperature  
Mean Temperature 61 °F -  
Max Temperature 70 °F 63 °F 78 °F (2012)
Min Temperature 51 °F 41 °F 26 °F (2007)
Degree Days  
Heating Degree Days 4    
Growing Degree Days 11 (Base 50)    
Moisture  
Dew Point 47 °F    
Average Humidity 72    
Maximum Humidity 94    
Minimum Humidity 25    
Precipitation  
Precipitation 0.34 in - - ()
Sea Level Pressure  
Sea Level Pressure 29.87 in    
Wind  
Wind Speed 7 mph (West)    
Max Wind Speed 17 mph    
Max Gust Speed 22 mph    
Visibility 8 miles    
Events Rain , Thunderstorm    
Averages and records for this station are not official NWS values.
T = Trace of Precipitation, MM = Missing Value Source: NWS Daily Summary

Daily Weather History Graph

Daily Weather History Graph

Search for Another Location

Airport or City:

Trip Planner

Search our weather history database for the weather conditions in past years. The results will help you decide how hot, cold, wet, or windy it might be!

Date:

Astronomy

Mar. 19, 2013 Rise Set
Actual Time 7:14 AM EDT 7:20 PM EDT
Civil Twilight 6:49 AM EDT 7:46 PM EDT
Nautical Twilight 6:20 AM EDT 8:15 PM EDT
Astronomical Twilight 5:50 AM EDT 8:45 PM EDT
Moon 12:16 PM EDT (3/19) 1:53 AM EDT (3/19)
Length of Visible Light 12h 56m
Length of Day
12h 06m
Waxing Crescent, 49% of the Moon is Illuminated
Mar 19
Waxing Crescent
Mar 19
First Quarter
Mar 27
Full
Apr 3
Last Quarter
Apr 10
New

Hourly Weather History & Observations

Time (EDT) Temp. Dew Point Humidity Pressure Visibility Wind Dir Wind Speed Gust Speed Precip Events Conditions
12:42 AM 57.2 °F 51.8 °F 82% 29.90 in 10.0 mi Calm Calm - N/A   Overcast
1:04 AM 57.2 °F 51.8 °F 82% 29.89 in 10.0 mi NNE 3.5 mph - N/A   Overcast
1:56 AM 57.0 °F 52.0 °F 83% 29.87 in 10.0 mi Calm Calm - N/A   Mostly Cloudy
2:03 AM 57.2 °F 51.8 °F 82% 29.87 in 8.0 mi Calm Calm - 0.00 in Rain , Thunderstorm Light Thunderstorms and Rain
2:41 AM 55.4 °F 53.6 °F 94% 29.84 in 1.2 mi SSE 4.6 mph - 0.18 in Rain , Thunderstorm Heavy Thunderstorms and Rain
2:56 AM 55.9 °F 53.1 °F 90% 29.85 in 2.5 mi SSE 9.2 mph - 0.25 in Rain , Thunderstorm Thunderstorms and Rain
3:03 AM 55.4 °F 53.6 °F 94% 29.83 in 3.0 mi SSE 10.4 mph - 0.02 in Rain , Thunderstorm Thunderstorms and Rain
3:28 AM 57.2 °F 55.4 °F 94% 29.80 in 5.0 mi South 8.1 mph - 0.07 in Rain Light Rain
3:56 AM 57.9 °F 55.0 °F 90% 29.77 in 8.0 mi SSE 8.1 mph - 0.09 in Rain Light Rain
4:42 AM 57.2 °F 55.4 °F 94% 29.77 in 7.0 mi WNW 8.1 mph - 0.00 in   Scattered Clouds
4:52 AM 59.0 °F 55.4 °F 88% 29.78 in 10.0 mi NW 8.1 mph - 0.00 in   Mostly Cloudy
4:56 AM 59.0 °F 55.9 °F 90% 29.79 in 10.0 mi WNW 8.1 mph - 0.00 in   Mostly Cloudy
5:04 AM 57.2 °F 55.4 °F 94% 29.79 in 10.0 mi WNW 9.2 mph - N/A   Overcast
5:15 AM 57.2 °F 53.6 °F 88% 29.80 in 10.0 mi WNW 10.4 mph - N/A   Overcast
5:56 AM 55.9 °F 52.0 °F 87% 29.83 in 9.0 mi WSW 5.8 mph - N/A   Mostly Cloudy
6:07 AM 55.4 °F 51.8 °F 88% 29.82 in 8.0 mi WSW 4.6 mph - N/A   Scattered Clouds
6:36 AM 55.4 °F 51.8 °F 88% 29.82 in 7.0 mi WSW 4.6 mph - N/A   Mostly Cloudy
7:12 AM 53.6 °F 51.8 °F 94% 29.84 in 7.0 mi West 10.4 mph - N/A   Mostly Cloudy
7:28 AM 53.6 °F 50.0 °F 88% 29.86 in 6.0 mi West 10.4 mph 18.4 mph N/A   Overcast
7:56 AM 53.1 °F 50.0 °F 89% 29.88 in 5.0 mi West 8.1 mph - N/A   Overcast
8:56 AM 53.1 °F 48.9 °F 86% 29.90 in 6.0 mi West 11.5 mph - N/A   Mostly Cloudy
9:56 AM 54.0 °F 48.0 °F 80% 29.88 in 9.0 mi West 13.8 mph - N/A   Overcast
10:38 AM 55.4 °F 48.2 °F 77% 29.87 in 10.0 mi WNW 9.2 mph - N/A   Scattered Clouds
10:56 AM 57.0 °F 48.0 °F 72% 29.89 in 10.0 mi WNW 15.0 mph - N/A   Mostly Cloudy
11:56 AM 59.0 °F 48.0 °F 67% 29.90 in 10.0 mi NW 13.8 mph 21.9 mph N/A   Partly Cloudy
12:32 PM 57.2 °F 46.4 °F 67% 29.90 in 10.0 mi WNW 17.3 mph - N/A   Mostly Cloudy
12:56 PM 57.9 °F 46.9 °F 67% 29.91 in 10.0 mi WNW 13.8 mph 20.7 mph N/A   Mostly Cloudy
1:08 PM 59.0 °F 46.4 °F 63% 29.90 in 10.0 mi NW 10.4 mph - N/A   Mostly Cloudy
1:56 PM 63.0 °F 46.0 °F 54% 29.90 in 10.0 mi NW 12.7 mph - N/A   Mostly Cloudy
2:56 PM 66.0 °F 44.1 °F 45% 29.86 in 10.0 mi WNW 12.7 mph - N/A   Clear
3:56 PM 68.0 °F 39.9 °F 36% 29.85 in 10.0 mi WNW 11.5 mph - N/A   Clear
4:56 PM 69.1 °F 37.0 °F 31% 29.86 in 10.0 mi West 15.0 mph 21.9 mph N/A   Clear
5:56 PM 69.1 °F 32.0 °F 25% 29.87 in 10.0 mi WNW 11.5 mph - N/A   Clear
6:56 PM 66.0 °F 30.9 °F 27% 29.89 in 10.0 mi WNW 6.9 mph - N/A   Clear
7:56 PM 59.0 °F 37.0 °F 44% 29.91 in 10.0 mi West 4.6 mph - N/A   Clear
8:56 PM 54.0 °F 43.0 °F 66% 29.95 in 10.0 mi WSW 4.6 mph - N/A   Clear
9:56 PM 55.0 °F 33.1 °F 43% 29.98 in 10.0 mi WNW 5.8 mph - N/A   Clear
10:56 PM 53.1 °F 35.1 °F 50% 29.99 in 10.0 mi WNW 4.6 mph - N/A   Clear
11:56 PM 51.1 °F 30.0 °F 44% 30.00 in 10.0 mi WNW 5.8 mph - N/A   Clear